Miscellaneous Local Product
Issued by NWS North Platte, NE

Home | Current Version | Previous Version | Text Only | Print | Product List | Glossary On
Versions: 1 2 3 4 5 6 7 8 9 10 11 12 13 14 15 16 17 18 19 20 21 22 23 24 25 26 27 28 29 30 31 32 33 34 35 36 37 38 39 40 41 42 43 44 45 46 47 48 49 50
000
AXUS43 KLBF 311310
MISLBF


WESTERN AND NORTH CENTRAL NEBRASKA HOURLY WEATHER ROUNDUP
NATIONAL WEATHER SERVICE NORTH PLATTE NE
800 AM CDT MON AUG 31 2015

NOTE: "FAIR" INDICATES FEW OR NO CLOUDS BELOW 12,000 FEET WITH NO
SIGNIFICANT WEATHER AND/OR OBSTRUCTIONS TO VISIBILITY.

NOTE: STATIONS NOT REPORTING VARIABLES SUCH AS SKY/WEATHER OR
PRESSURE ARE PROVIDED BY THE NEBRASKA DEPARTMENT OF
ROADS...RAWS...AND APRS NETWORKS...AND ARE NOT UNDER
NATIONAL WEATHER SERVICE QUALITY CONTROL.

...OBSERVATIONS IN AND NEAR THE EASTERN PANHANDLE OF NEBRASKA...

CITY           SKY/WX    TMP DP  RH WIND       PRES   REMARKS
PINE RIDGE     PTCLDY    67  51  56 CALM      29.90R
CHADRON        MOCLDY    76  52  43 SW7       29.89R
ALLIANCE       CLOUDY    62  52  69 W5        29.96R
SIDNEY         MOCLDY    64  50  60 NW9       30.00R
CRESCENT LAKE    N/A     63  48  59 S3          N/A
BIG SPRINGS      N/A     55  51  85 CALM        N/A
$$

...OBSERVATIONS IN NORTH CENTRAL NEBRASKA...

CITY           SKY/WX    TMP DP  RH WIND       PRES   REMARKS
VALENTINE      PTCLDY    68  49  50 SW7       29.86R
THEDFORD       CLEAR     64  55  70 S13       29.89F
AINSWORTH      CLEAR     65  57  76 S10       29.87R
O`NEILL        SUNNY     65  64  96 S10       29.89S
ORD            CLOUDY    63  62  97 S5        29.90S FOG
BROKEN BOW     CLEAR     61  59  93 SE5       29.92R FOG
SPRINGVIEW       N/A     65  60  82 CALM        N/A
SARGENT          N/A     59  58  97 CALM        N/A
CHAMBERS         N/A     64  62  95 S6G15       N/A
EWING            N/A     65  61  86 S3          N/A
$$

...OBSERVATIONS IN SOUTHWEST NEBRASKA AND FAR NORTHEAST COLORADO...

CITY           SKY/WX    TMP DP  RH WIND       PRES   REMARKS
WRAY           FAIR      57  48  72 W3        29.96R
HOLYOKE        FAIR      59  54  82 CALM      29.96R
IMPERIAL       CLEAR     57  50  77 SE3       29.94R
OGALLALA       PTCLDY    56  50  79 CALM      29.95R
NORTH PLATTE   CLEAR     58  55  90 CALM      29.93R
MCCOOK         CLEAR     60  55  83 NW7       29.93R
LEXINGTON      CLEAR     62  61  96 SE6       29.93R FOG
PAXTON           N/A     54  50  87 CALM        N/A
BRADY            N/A     57  55  93 CALM        N/A
CALLAWAY         N/A     60  59  98 S8          N/A
$$

...OBSERVATIONS IN CENTRAL LINCOLN COUNTY AREA...

CITY           SKY/WX    TMP DP  RH WIND       PRES   REMARKS
N.P. AIRPORT   CLEAR     58  55  90 CALM      29.93R
N.P. DOWNTOWN    N/A     60  56  86 CALM        N/A
N.P. SOUTHEAST   N/A     60  56  86 CALM        N/A
N.P. HILLCREST   N/A     60  56  86 CALM        N/A
$$

...SOME OBSERVATIONS FROM AROUND THE REGION...

CITY           SKY/WX    TMP DP  RH WIND       PRES   REMARKS
DENVER         MOCLDY    67  45  45 E3        30.07R
LARAMIE        CLOUDY    55  49  80 MISG      30.20S
CHEYENNE       CLOUDY    66  47  50 NW9       30.13R
SCOTTSBLUFF    CLOUDY    74  51  44 NW16G24   29.95F
RAPID CITY     CLOUDY    68  53  58 N23G32    29.91R
PIERRE         CLOUDY    72  52  49 S3        29.71R
WINNER         FAIR      72  53  51 S23G30    29.78R
SIOUX FALLS    MOSUNNY   66  64  93 S12       29.89S
OMAHA          MOSUNNY   67  67 100 S6        29.96R FOG
GRAND ISLAND   SUNNY     63  62  97 S7        29.94S FOG
KANSAS CITY    PTSUNNY   71  70  96 S6        29.99R FOG
WICHITA        PTSUNNY   71  67  87 SE7       29.96R
HAYS           CLEAR     63  55  77 SE7       29.94R
LIBERAL        CLEAR     59  52  77 S6        29.97R
GOODLAND       CLEAR     57  53  86 S8        29.94R
$$



USA.gov is the U.S. government's official web portal to all federal, state and local government web resources and services.